• In Russia
  • List of Countries
  • For 7 days
  • Water Temperature
  • Satellite Maps
  • Weather Map
  • Weather Widgets
  • user-avatar
    Login

    Hourly Weather Chrzanowo

    Today, 20 February, Wednesday

    Time Temperature Precipitation Wind Pressure Humidity
    00:00 +2°C° 0 mm 5 mps 749 mmHg 90%
    01:00 +1°C° 0 mm 4 mps 749 mmHg 91%
    02:00 +1°C° 0 mm 4 mps 749 mmHg 91%
    03:00 +1°C° 0 mm 5 mps 749 mmHg 91%
    04:00 +1°C° 0 mm 5 mps 749 mmHg 91%
    05:00 +1°C° 0 mm 5 mps 749 mmHg 91%
    06:00 -1°C° 0 mm 6 mps 749 mmHg 91%
    07:00 0°C° 0 mm 5 mps 749 mmHg 91%
    08:00 +1°C° 0.1 mm 6 mps 750 mmHg 84%
    09:00 +2°C° 0.1 mm 7 mps 750 mmHg 77%
    10:00 +2°C° 0.1 mm 8 mps 750 mmHg 70%
    11:00 +2°C° 0.1 mm 8 mps 751 mmHg 68%
    12:00 +4°C° 0.1 mm 8 mps 751 mmHg 67%
    13:00 +4°C° 0.1 mm 8 mps 751 mmHg 65%
    14:00 +4°C° 0 mm 8 mps 751 mmHg 65%
    15:00 +4°C° 0 mm 7 mps 751 mmHg 66%
    16:00 +4°C° 0 mm 7 mps 752 mmHg 66%
    17:00 +3°C° 0 mm 6 mps 752 mmHg 69%
    18:00 +3°C° 0 mm 6 mps 753 mmHg 72%
    19:00 +2°C° 0 mm 6 mps 753 mmHg 75%
    20:00 +2°C° 0 mm 5 mps 754 mmHg 78%
    21:00 +1°C° 0 mm 4 mps 754 mmHg 81%
    22:00 0°C° 0 mm 4 mps 755 mmHg 84%
    23:00 +1°C° 0 mm 3 mps 755 mmHg 85%

    Tomorrow, 21 February, Thursday

    Time Temperature Precipitation Wind Pressure Humidity
    00:00 0°C° 0 mm 3 mps 755 mmHg 86%
    01:00 -1°C° 0 mm 2 mps 756 mmHg 87%
    02:00 -1°C° 0 mm 2 mps 756 mmHg 86%
    03:00 -1°C° 0 mm 2 mps 756 mmHg 86%
    04:00 -1°C° 0 mm 2 mps 756 mmHg 85%
    05:00 -1°C° 0 mm 2 mps 756 mmHg 87%
    06:00 +2°C° 0 mm 1 mps 756 mmHg 88%
    07:00 +2°C° 0 mm 1 mps 756 mmHg 90%
    08:00 +2°C° 0.2 mm 1 mps 756 mmHg 90%
    09:00 +2°C° 0.2 mm 2 mps 756 mmHg 91%
    10:00 +2°C° 0.2 mm 2 mps 756 mmHg 92%
    11:00 +3°C° 0.6 mm 2 mps 755 mmHg 93%
    12:00 +3°C° 0.6 mm 2 mps 755 mmHg 94%
    13:00 +3°C° 0.6 mm 2 mps 755 mmHg 95%
    14:00 +2°C° 1 mm 3 mps 754 mmHg 94%
    15:00 +3°C° 1 mm 3 mps 753 mmHg 94%
    16:00 +3°C° 1 mm 4 mps 753 mmHg 94%
    17:00 +3°C° 1 mm 4 mps 753 mmHg 94%
    18:00 +3°C° 1 mm 4 mps 752 mmHg 94%
    19:00 +3°C° 1 mm 4 mps 752 mmHg 95%
    20:00 +3°C° 0.9 mm 4 mps 752 mmHg 95%
    21:00 +3°C° 0.9 mm 3 mps 752 mmHg 95%
    22:00 +3°C° 0.9 mm 3 mps 752 mmHg 96%
    23:00 +1°C° 0.4 mm 4 mps 752 mmHg 94%

    Day after tomorrow, 22 February, Friday

    Time Temperature Precipitation Wind Pressure Humidity
    00:00 -1°C° 0.4 mm 6 mps 752 mmHg 93%
    01:00 -2°C° 0.4 mm 7 mps 753 mmHg 91%
    02:00 -3°C° 0.2 mm 7 mps 754 mmHg 88%
    03:00 -4°C° 0.2 mm 7 mps 755 mmHg 85%
    04:00 -6°C° 0.2 mm 8 mps 756 mmHg 81%
    05:00 -6°C° 0 mm 7 mps 757 mmHg 78%
    06:00 -7°C° 0 mm 7 mps 758 mmHg 75%
    07:00 -7°C° 0 mm 7 mps 760 mmHg 71%
    08:00 -7°C° 0 mm 7 mps 761 mmHg 67%
    09:00 -7°C° 0 mm 7 mps 762 mmHg 62%
    10:00 -7°C° 0 mm 7 mps 763 mmHg 57%
    11:00 -6°C° 0 mm 6 mps 764 mmHg 56%
    12:00 -6°C° 0 mm 6 mps 764 mmHg 54%
    13:00 -5°C° 0 mm 6 mps 765 mmHg 52%
    14:00 -5°C° 0 mm 6 mps 765 mmHg 52%
    15:00 -6°C° 0 mm 6 mps 766 mmHg 51%
    16:00 -6°C° 0 mm 5 mps 766 mmHg 51%
    17:00 -6°C° 0 mm 5 mps 767 mmHg 51%
    18:00 -6°C° 0 mm 5 mps 768 mmHg 51%
    19:00 -7°C° 0 mm 5 mps 768 mmHg 51%
    20:00 -7°C° 0 mm 5 mps 769 mmHg 50%
    21:00 -7°C° 0 mm 5 mps 769 mmHg 49%
    22:00 -7°C° 0 mm 5 mps 770 mmHg 48%
    23:00 -7°C° 0 mm 5 mps 770 mmHg 49%

    23 February, Saturday

    Time Temperature Precipitation Wind Pressure Humidity
    00:00 -7°C° 0 mm 4 mps 770 mmHg 51%
    01:00 -8°C° 0 mm 4 mps 770 mmHg 52%
    02:00 -8°C° 0 mm 4 mps 770 mmHg 54%
    03:00 -7°C° 0 mm 3 mps 770 mmHg 55%
    04:00 -7°C° 0 mm 3 mps 770 mmHg 57%
    05:00 -8°C° 0 mm 3 mps 771 mmHg 58%
    06:00 -8°C° 0 mm 3 mps 771 mmHg 59%
    07:00 -8°C° 0 mm 3 mps 771 mmHg 60%
    08:00 -7°C° 0 mm 3 mps 771 mmHg 55%
    09:00 -5°C° 0 mm 2 mps 771 mmHg 49%
    10:00 -5°C° 0 mm 2 mps 771 mmHg 44%
    11:00 -4°C° 0 mm 2 mps 771 mmHg 40%
    12:00 -3°C° 0 mm 2 mps 771 mmHg 36%
    13:00 -2°C° 0 mm 3 mps 771 mmHg 33%
    14:00 -2°C° 0 mm 2 mps 771 mmHg 33%
    15:00 -2°C° 0 mm 2 mps 770 mmHg 33%
    16:00 -2°C° 0 mm 2 mps 770 mmHg 33%
    17:00 -2°C° 0 mm 2 mps 770 mmHg 35%
    18:00 -2°C° 0 mm 2 mps 770 mmHg 38%
    19:00 0°C° 0 mm 1 mps 770 mmHg 40%
    20:00 0°C° 0 mm 1 mps 770 mmHg 41%
    21:00 -1°C° 0 mm 1 mps 770 mmHg 42%
    22:00 -1°C° 0 mm 1 mps 769 mmHg 43%
    23:00 -1°C° 0 mm 1 mps 769 mmHg 44%

    24 February, Sunday

    Time Temperature Precipitation Wind Pressure Humidity
    00:00 -2°C° 0 mm 2 mps 769 mmHg 44%
    01:00 -2°C° 0 mm 2 mps 769 mmHg 44%
    02:00 -2°C° 0 mm 2 mps 768 mmHg 47%
    03:00 -2°C° 0 mm 3 mps 768 mmHg 50%
    04:00 -2°C° 0 mm 3 mps 768 mmHg 53%
    05:00 -2°C° 0 mm 3 mps 767 mmHg 56%
    06:00 -2°C° 0 mm 3 mps 767 mmHg 58%
    07:00 -2°C° 0 mm 3 mps 767 mmHg 60%
    08:00 -1°C° 0 mm 3 mps 767 mmHg 58%
    09:00 -1°C° 0 mm 3 mps 767 mmHg 55%
    10:00 0°C° 0 mm 3 mps 767 mmHg 53%
    11:00 +1°C° 0 mm 3 mps 767 mmHg 54%
    12:00 +3°C° 0 mm 2 mps 767 mmHg 54%
    13:00 +4°C° 0 mm 2 mps 766 mmHg 54%
    14:00 +3°C° 0 mm 2 mps 766 mmHg 59%
    15:00 +3°C° 0 mm 2 mps 766 mmHg 63%
    16:00 +4°C° 0 mm 1 mps 766 mmHg 67%
    17:00 +2°C° 0 mm 2 mps 766 mmHg 71%
    18:00 +1°C° 0 mm 2 mps 766 mmHg 75%
    19:00 -1°C° 0 mm 2 mps 766 mmHg 78%
    20:00 -1°C° 0 mm 2 mps 766 mmHg 80%
    21:00 -1°C° 0 mm 2 mps 765 mmHg 81%
    22:00 -1°C° 0 mm 2 mps 765 mmHg 83%
    23:00 -1°C° 0 mm 2 mps 765 mmHg 83%

    25 February, Monday

    Time Temperature Precipitation Wind Pressure Humidity
    00:00 -1°C° 0 mm 2 mps 765 mmHg 84%
    01:00 +1°C° 0 mm 2 mps 765 mmHg 85%
    02:00 -1°C° 0 mm 3 mps 764 mmHg 87%
    03:00 -1°C° 0 mm 3 mps 764 mmHg 90%
    04:00 -1°C° 0 mm 3 mps 764 mmHg 92%
    05:00 -1°C° 0 mm 3 mps 763 mmHg 93%
    06:00 -1°C° 0 mm 3 mps 763 mmHg 93%
    07:00 -1°C° 0 mm 3 mps 763 mmHg 94%
    08:00 -1°C° 0 mm 4 mps 763 mmHg 90%
    09:00 +1°C° 0 mm 6 mps 764 mmHg 86%
    10:00 +2°C° 0 mm 7 mps 764 mmHg 82%
    11:00 +2°C° 0 mm 6 mps 764 mmHg 80%
    12:00 +2°C° 0 mm 6 mps 764 mmHg 78%
    13:00 +2°C° 0 mm 5 mps 764 mmHg 76%
    14:00 +2°C° 0 mm 5 mps 765 mmHg 77%
    15:00 +3°C° 0 mm 4 mps 765 mmHg 77%
    16:00 +2°C° 0 mm 3 mps 765 mmHg 78%
    17:00 +1°C° 0 mm 3 mps 765 mmHg 82%
    18:00 0°C° 0 mm 3 mps 765 mmHg 86%
    19:00 -1°C° 0 mm 3 mps 766 mmHg 89%
    20:00 -1°C° 0 mm 3 mps 766 mmHg 90%
    21:00 -1°C° 0 mm 3 mps 766 mmHg 90%
    22:00 -1°C° 0 mm 3 mps 766 mmHg 91%
    23:00 -1°C° 0 mm 3 mps 765 mmHg 90%
    Show more